Location: Albany
(35.0000°S, 118.0000°E)
Time: 10:16:03
(UTC-04:00)

SJ-6B - Visible Passes

Search period start: 05 September 2015 00:00
Search period end: 15 September 2015 00:00
Orbit: 514 x 589 km, 97.8° (Epoch: 04 September)

Date Brightness Start Highest point End Pass type
(mag) Time Alt. Az. Time Alt. Az. Time Alt. Az.
05 Sep 4.6 07:28:13 10° S 07:32:04 35° WSW 07:35:51 10° NW visible
06 Sep 4.4 07:24:25 10° S 07:28:21 38° WSW 07:32:14 10° NW visible
07 Sep 4.2 07:20:38 10° S 07:24:39 43° WSW 07:28:37 10° NW visible
08 Sep 4.0 07:16:51 10° S 07:20:56 48° WSW 07:24:58 10° NNW visible
09 Sep 3.8 07:13:05 10° S 07:17:13 54° WSW 07:21:19 10° NNW visible
10 Sep 3.5 07:09:20 10° S 07:13:31 60° WSW 07:17:38 10° NNW visible
11 Sep 3.3 07:05:35 10° S 07:09:48 67° WSW 07:13:57 10° NNW visible
12 Sep 3.2 07:01:50 10° S 07:06:05 76° WSW 07:10:15 10° NNW visible
12 Sep 4.6 17:43:50 10° NE 17:47:25 37° ESE 17:51:09 10° S visible
13 Sep 3.0 06:58:06 10° S 07:02:21 84° WSW 07:06:32 10° NNW visible
13 Sep 4.9 17:40:11 10° NE 17:43:42 33° ESE 17:47:22 10° S visible
14 Sep 2.9 06:54:23 10° SSE 06:58:38 87° ENE 07:02:49 10° NNW visible
14 Sep 5.1 17:36:33 10° NE 17:39:58 30° ESE 17:43:33 10° S visible
